World > North America > United States > New York

Hourly Slab City, NY Regional Weather

Feedback E-mail the Weather

Latest News

Slab City, NY Weather Maps

°F °C°F °C
Slab City Weather Map
UTC Time: 5/21/2022, 13:33
Your Time:

Slab City, NY Regional Weather

Expires:202205211400;;328681
ASUS41 KBTV 211330
RWRBTV
VERMONT REGIONAL WEATHER ROUNDUP
NATIONAL WEATHER SERVICE BURLINGTON VT
900 AM EDT SAT MAY 21 2022

NOTE: "FAIR" INDICATES FEW OR NO CLOUDS BELOW 12,000 FEET WITH NO 
SIGNIFICANT WEATHER AND/OR OBSTRUCTIONS TO VISIBILITY.

* THESE REPORTS ARE NOT UNDER NWS QUALITY CONTROL AND/OR DO NOT
  REPORT WEATHER SUCH AS PRECIPITATION AND FOG.


NYZ007-026>031-035-052-083-087-211400-
_____NORTHERN NEW YORK_
  
CITY           SKY/WX    TMP DP  RH WIND       PRES   REMARKS
PLATTSBURGH    CLOUDY    66  60  81 SE13      29.88R                  
SARANAC LAKE   CLOUDY    71  64  78 SW8       29.94R                  
MASSENA        MOSUNNY   77  66  68 SW16G24   29.83R                  
OGDENSBURG*    FAIR      77  66  69 SW14G21   29.82S                  
POTSDAM*       SUNNY     79  68  69 SW20      29.85S                  
WATERTOWN      SUNNY     79  67  66 SW15      29.87R                  
FT DRUM        SUNNY     79  66  64 SW16G22   29.88R                  
ALBANY         CLOUDY    68  64  87 S5        29.98R                  
GLENS FALLS    CLOUDY    66  63  90 S7        29.97R                  

$$

SKY/WX - Weather  TMP - Temperature  DP - Dew Point  RH - Humidity
WIND - Wind Direction/Speed PRES - Barometric Pressure VSB - Visibility
WCI - Wind Chill Index E13G22 Wind - East Wind 13 mph/Gusts of 22 mph

Trending Headlines

Slab City Radar Loop



Slab City Quick Facts


National Two Day Weather Forecast


E-mail the Slab City Weather Forecast

Voice your opinion or tell us about page issues...